User: anonymous   Login
Location: Équennes
(49.7375°N, 1.9622°E)
Time: 13:23:42
(UTC+00:00)
Language:

CZ-4 R/B - Orbit

View from above orbital plane
View from above orbital plane
View from above satellite
View from above satellite

Ground track
Ground track

The orbit data is extracted from the following two-line orbital elements,

1 29507U 06046C   23151.88216544  .00003011  00000-0  21792-3 0  9998
2 29507  97.6889 185.1964 0045202 134.4274 226.0665 15.03960855907199
Epoch (UTC): 31 May 2023 21:10:19
Eccentricity: 0.0045202
inclination: 97.6889°
perigee height: 523 km
apogee height: 586 km
right ascension of ascending node: 185.1964°
argument of perigee: 134.4274°
revolutions per day: 15.03960855
mean anomaly at epoch: 226.0665°
orbit number at epoch: 90719

The dashed part of the orbit path shows where the satellite is in the earth's shadow,  

DLR